Time,TemperatureF,DewpointF,PressureIn,WindDirection,WindDirectionDegrees,WindSpeedMPH,WindSpeedGustMPH,Humidity,HourlyPrecipIn,Conditions,Clouds,dailyrainin,SoftwareType,DateUTC
2013-02-19 00:00:00,26.5,10.4,30.20,WSW,244,1.4,4.3,50,0.00,,CLR,0.00,VWS V14.01,2013-02-19 05:00:00,
2013-02-19 00:01:00,26.5,9.9,30.19,SW,221,0.0,5.7,49,0.00,,CLR,0.00,VWS V14.01,2013-02-19 05:01:00,
2013-02-19 00:06:00,26.5,10.4,30.20,SSW,196,2.9,7.1,50,0.00,,CLR,0.00,VWS V14.01,2013-02-19 05:06:00,
2013-02-19 00:11:00,26.5,10.4,30.20,SW,223,0.0,0.0,50,0.00,,CLR,0.00,VWS V14.01,2013-02-19 05:11:00,
2013-02-19 00:16:00,26.4,10.3,30.19,SSW,213,1.4,1.4,50,0.00,,CLR,0.00,VWS V14.01,2013-02-19 05:16:00,
2013-02-19 00:21:00,26.4,10.3,30.20,SSW,213,0.0,0.0,50,0.00,,CLR,0.00,VWS V14.01,2013-02-19 05:21:00,
2013-02-19 00:26:00,26.4,10.7,30.20,SSW,213,0.0,0.0,51,0.00,,CLR,0.00,VWS V14.01,2013-02-19 05:26:00,
2013-02-19 00:31:00,26.4,11.2,30.20,SSW,213,0.0,0.0,52,0.00,,CLR,0.00,VWS V14.01,2013-02-19 05:31:00,
2013-02-19 00:36:00,26.2,11.0,30.19,SSW,213,0.0,0.0,52,0.00,,CLR,0.00,VWS V14.01,2013-02-19 05:36:00,
2013-02-19 00:41:00,26.2,11.0,30.20,SSW,213,0.0,1.4,52,0.00,,CLR,0.00,VWS V14.01,2013-02-19 05:41:00,
2013-02-19 00:46:00,26.2,11.8,30.19,SSW,213,0.0,4.3,54,0.00,,CLR,0.00,VWS V14.01,2013-02-19 05:46:00,
2013-02-19 00:51:00,26.5,12.9,30.19,SW,234,0.0,12.9,56,0.00,,CLR,0.00,VWS V14.01,2013-02-19 05:51:00,
2013-02-19 00:56:00,26.7,13.5,30.18,SW,235,0.0,2.9,57,0.00,,CLR,0.00,VWS V14.01,2013-02-19 05:56:00,
2013-02-19 01:01:00,26.8,14.0,30.18,SW,235,0.0,0.0,58,0.00,,CLR,0.00,VWS V14.01,2013-02-19 06:01:00,
2013-02-19 01:06:00,26.8,14.0,30.18,SW,235,0.0,1.4,58,0.00,,CLR,0.00,VWS V14.01,2013-02-19 06:06:00,
2013-02-19 01:11:00,26.8,14.0,30.19,SW,235,1.4,1.4,58,0.00,,CLR,0.00,VWS V14.01,2013-02-19 06:11:00,
2013-02-19 01:16:00,26.8,14.4,30.18,SW,235,0.0,0.0,59,0.00,,CLR,0.00,VWS V14.01,2013-02-19 06:16:00,
2013-02-19 01:21:00,27.0,15.0,30.19,SW,235,0.0,0.0,60,0.00,,CLR,0.00,VWS V14.01,2013-02-19 06:21:00,
2013-02-19 01:26:00,26.8,14.8,30.19,SW,235,0.0,0.0,60,0.00,,CLR,0.00,VWS V14.01,2013-02-19 06:26:00,
2013-02-19 01:31:00,26.8,15.5,30.18,SW,231,0.0,4.3,62,0.00,,CLR,0.00,VWS V14.01,2013-02-19 06:31:00,
2013-02-19 01:36:00,27.0,16.1,30.17,SW,222,0.0,0.0,63,0.00,,CLR,0.00,VWS V14.01,2013-02-19 06:36:00,
2013-02-19 01:41:00,27.1,16.2,30.17,SW,222,0.0,0.0,63,0.00,,CLR,0.00,VWS V14.01,2013-02-19 06:41:00,
2013-02-19 01:46:00,27.1,16.2,30.17,SW,222,0.0,0.0,63,0.00,,CLR,0.00,VWS V14.01,2013-02-19 06:46:00,
2013-02-19 01:51:00,26.8,16.3,30.16,SW,222,0.0,0.0,64,0.00,,CLR,0.00,VWS V14.01,2013-02-19 06:51:00,
2013-02-19 01:56:00,26.5,16.0,30.16,SW,222,0.0,0.0,64,0.00,,CLR,0.00,VWS V14.01,2013-02-19 06:56:00,
2013-02-19 02:01:00,26.4,16.2,30.16,SW,222,0.0,0.0,65,0.00,,CLR,0.00,VWS V14.01,2013-02-19 07:01:00,
2013-02-19 02:06:00,26.2,16.1,30.16,SW,222,0.0,0.0,65,0.00,,SCT065,0.00,VWS V14.01,2013-02-19 07:06:00,
2013-02-19 02:11:00,25.9,16.1,30.15,SW,222,0.0,0.0,66,0.00,,SCT065,0.00,VWS V14.01,2013-02-19 07:11:00,
2013-02-19 02:16:00,25.8,16.0,30.15,SW,222,0.0,0.0,66,0.00,,SCT065,0.00,VWS V14.01,2013-02-19 07:16:00,
2013-02-19 02:21:00,25.6,15.8,30.15,SW,222,0.0,0.0,66,0.00,,SCT065,0.00,VWS V14.01,2013-02-19 07:21:00,
2013-02-19 02:26:00,25.6,16.5,30.15,SW,222,0.0,0.0,68,0.00,,SCT065,0.00,VWS V14.01,2013-02-19 07:26:00,
2013-02-19 02:31:00,25.5,16.4,30.15,SW,222,0.0,0.0,68,0.00,,SCT065,0.00,VWS V14.01,2013-02-19 07:31:00,
2013-02-19 02:36:00,25.5,16.4,30.15,SW,222,0.0,0.0,68,0.00,,SCT065,0.00,VWS V14.01,2013-02-19 07:36:00,
2013-02-19 02:41:00,25.5,16.8,30.15,SW,222,0.0,0.0,69,0.00,,SCT065,0.00,VWS V14.01,2013-02-19 07:41:00,
2013-02-19 02:46:00,25.6,17.2,30.15,SW,222,0.0,0.0,70,0.00,,SCT065,0.00,VWS V14.01,2013-02-19 07:46:00,
2013-02-19 02:51:00,26.1,18.0,30.15,SW,222,0.0,2.9,71,0.00,,SCT065,0.00,VWS V14.01,2013-02-19 07:51:00,
2013-02-19 02:56:00,26.5,18.4,30.15,SW,222,0.0,0.0,71,0.00,,SCT065,0.00,VWS V14.01,2013-02-19 07:56:00,
2013-02-19 03:01:00,26.7,18.9,30.15,WSW,258,0.0,1.4,72,0.00,,SCT065,0.00,VWS V14.01,2013-02-19 08:01:00,
2013-02-19 03:06:00,26.7,18.6,30.15,SW,217,0.0,1.4,71,0.00,,CLR,0.00,VWS V14.01,2013-02-19 08:06:00,
2013-02-19 03:11:00,26.7,18.9,30.15,SW,217,1.4,1.4,72,0.00,,CLR,0.00,VWS V14.01,2013-02-19 08:11:00,
2013-02-19 03:16:00,26.7,19.2,30.14,SW,218,0.0,8.6,73,0.00,,CLR,0.00,VWS V14.01,2013-02-19 08:16:00,
2013-02-19 03:21:00,27.0,19.5,30.14,SW,218,0.0,0.0,73,0.00,,CLR,0.00,VWS V14.01,2013-02-19 08:21:00,
2013-02-19 03:26:00,27.3,20.1,30.14,SW,221,0.0,4.3,74,0.00,,CLR,0.00,VWS V14.01,2013-02-19 08:26:00,
2013-02-19 03:31:00,27.4,20.2,30.14,SW,222,0.0,1.4,74,0.00,,CLR,0.00,VWS V14.01,2013-02-19 08:31:00,
2013-02-19 03:36:00,27.4,20.2,30.14,SW,222,0.0,1.4,74,0.00,,CLR,0.00,VWS V14.01,2013-02-19 08:36:00,
2013-02-19 03:41:00,27.3,20.1,30.14,SW,222,0.0,0.0,74,0.00,,CLR,0.00,VWS V14.01,2013-02-19 08:41:00,
2013-02-19 03:46:00,27.3,20.4,30.14,SW,222,0.0,0.0,75,0.00,,CLR,0.00,VWS V14.01,2013-02-19 08:46:00,
2013-02-19 03:51:00,27.1,19.9,30.13,SSW,204,0.0,8.6,74,0.00,,CLR,0.00,VWS V14.01,2013-02-19 08:51:00,
2013-02-19 03:56:00,27.1,20.2,30.14,SSW,209,0.0,0.0,75,0.00,,CLR,0.00,VWS V14.01,2013-02-19 08:56:00,
2013-02-19 04:01:00,27.4,20.2,30.14,SW,220,1.4,2.9,74,0.00,,CLR,0.00,VWS V14.01,2013-02-19 09:01:00,
2013-02-19 04:06:00,27.7,20.2,30.14,SW,224,0.0,0.0,73,0.00,,FEW050,0.00,VWS V14.01,2013-02-19 09:06:00,
2013-02-19 04:11:00,27.8,20.3,30.14,WSW,244,2.9,5.7,73,0.00,,FEW050,0.00,VWS V14.01,2013-02-19 09:11:00,
2013-02-19 04:16:00,28.0,20.2,30.14,South,180,0.0,2.9,72,0.00,,FEW050,0.00,VWS V14.01,2013-02-19 09:16:00,
2013-02-19 04:21:00,28.1,20.2,30.14,SW,235,0.0,2.9,72,0.00,,FEW050,0.00,VWS V14.01,2013-02-19 09:21:00,
2013-02-19 04:26:00,28.2,20.4,30.14,WSW,239,2.9,2.9,72,0.00,,FEW050,0.00,VWS V14.01,2013-02-19 09:26:00,
2013-02-19 04:31:00,28.1,20.2,30.14,SW,230,0.0,1.4,72,0.00,,FEW050,0.00,VWS V14.01,2013-02-19 09:31:00,
2013-02-19 04:36:00,28.1,20.2,30.13,SW,230,0.0,1.4,72,0.00,,FEW050,0.00,VWS V14.01,2013-02-19 09:36:00,
2013-02-19 04:41:00,28.3,20.4,30.13,SW,229,2.9,2.9,72,0.00,,FEW050,0.00,VWS V14.01,2013-02-19 09:41:00,
2013-02-19 04:46:00,28.1,20.2,30.13,SW,229,0.0,1.4,72,0.00,,FEW050,0.00,VWS V14.01,2013-02-19 09:46:00,
2013-02-19 04:51:00,28.1,20.6,30.13,SW,229,0.0,0.0,73,0.00,,FEW050,0.00,VWS V14.01,2013-02-19 09:51:00,
2013-02-19 04:56:00,28.1,20.6,30.13,SW,229,0.0,0.0,73,0.00,,FEW050,0.00,VWS V14.01,2013-02-19 09:56:00,
2013-02-19 05:01:00,28.3,21.1,30.13,SW,229,0.0,0.0,74,0.00,,FEW050,0.00,VWS V14.01,2013-02-19 10:01:00,
2013-02-19 05:06:00,28.3,20.8,30.13,SW,229,0.0,0.0,73,0.00,,CLR,0.00,VWS V14.01,2013-02-19 10:06:00,
2013-02-19 05:11:00,28.3,21.1,30.13,SW,229,0.0,0.0,74,0.00,,CLR,0.00,VWS V14.01,2013-02-19 10:11:00,
2013-02-19 05:16:00,28.1,20.9,30.13,SW,229,0.0,0.0,74,0.00,,CLR,0.00,VWS V14.01,2013-02-19 10:16:00,
2013-02-19 05:21:00,28.1,20.9,30.12,SW,229,0.0,0.0,74,0.00,,CLR,0.00,VWS V14.01,2013-02-19 10:21:00,
2013-02-19 05:26:00,28.0,21.1,30.12,SW,229,0.0,0.0,75,0.00,,CLR,0.00,VWS V14.01,2013-02-19 10:26:00,
2013-02-19 05:31:00,27.9,21.0,30.12,SW,229,0.0,0.0,75,0.00,,CLR,0.00,VWS V14.01,2013-02-19 10:31:00,
2013-02-19 05:36:00,27.7,21.1,30.12,SW,229,0.0,0.0,76,0.00,,CLR,0.00,VWS V14.01,2013-02-19 10:36:00,
2013-02-19 05:41:00,27.7,21.1,30.12,SW,229,0.0,0.0,76,0.00,,CLR,0.00,VWS V14.01,2013-02-19 10:41:00,
2013-02-19 05:46:00,27.7,21.4,30.11,SW,229,0.0,0.0,77,0.00,,CLR,0.00,VWS V14.01,2013-02-19 10:46:00,
2013-02-19 05:51:00,27.7,21.4,30.11,SW,229,0.0,0.0,77,0.00,,CLR,0.00,VWS V14.01,2013-02-19 10:51:00,
2013-02-19 05:56:00,27.7,21.4,30.11,SW,229,0.0,0.0,77,0.00,,CLR,0.00,VWS V14.01,2013-02-19 10:56:00,
2013-02-19 06:01:00,27.7,21.4,30.10,SW,229,0.0,0.0,77,0.00,,CLR,0.00,VWS V14.01,2013-02-19 11:01:00,
2013-02-19 06:06:00,27.7,21.8,30.10,SW,229,0.0,0.0,78,0.00,,CLR,0.00,VWS V14.01,2013-02-19 11:06:00,
2013-02-19 06:11:00,27.7,22.0,30.10,SW,229,0.0,0.0,79,0.00,,CLR,0.00,VWS V14.01,2013-02-19 11:11:00,
2013-02-19 06:16:00,27.7,22.4,30.10,SW,229,0.0,0.0,80,0.00,,CLR,0.00,VWS V14.01,2013-02-19 11:16:00,
2013-02-19 06:21:00,27.7,22.6,30.10,SW,229,0.0,0.0,81,0.00,,CLR,0.00,VWS V14.01,2013-02-19 11:21:00,
2013-02-19 06:26:00,27.6,22.5,30.10,SW,229,0.0,0.0,81,0.00,,CLR,0.00,VWS V14.01,2013-02-19 11:26:00,
2013-02-19 06:31:00,27.5,22.7,30.10,SW,229,0.0,0.0,82,0.00,,CLR,0.00,VWS V14.01,2013-02-19 11:31:00,
2013-02-19 06:36:00,27.4,22.6,30.09,SW,226,0.0,0.0,82,0.00,,CLR,0.00,VWS V14.01,2013-02-19 11:36:00,
2013-02-19 06:41:00,27.4,22.9,30.09,SW,226,0.0,0.0,83,0.00,,CLR,0.00,VWS V14.01,2013-02-19 11:41:00,
2013-02-19 06:46:00,27.3,22.5,30.09,SW,226,0.0,0.0,82,0.00,,CLR,0.00,VWS V14.01,2013-02-19 11:46:00,
2013-02-19 06:51:00,27.0,22.2,30.08,SW,226,0.0,0.0,82,0.00,,CLR,0.00,VWS V14.01,2013-02-19 11:51:00,
2013-02-19 06:56:00,26.8,22.3,30.08,SW,226,0.0,0.0,83,0.00,,CLR,0.00,VWS V14.01,2013-02-19 11:56:00,
2013-02-19 07:01:00,26.7,22.5,30.08,SW,226,0.0,0.0,84,0.00,,CLR,0.00,VWS V14.01,2013-02-19 12:01:00,
2013-02-19 07:06:00,26.8,22.9,30.08,SW,226,0.0,0.0,85,0.00,,CLR,0.00,VWS V14.01,2013-02-19 12:06:00,
2013-02-19 07:11:00,27.0,23.1,30.08,SW,226,0.0,0.0,85,0.00,,CLR,0.00,VWS V14.01,2013-02-19 12:11:00,
2013-02-19 07:16:00,27.1,23.5,30.08,SW,226,0.0,0.0,86,0.00,,CLR,0.00,VWS V14.01,2013-02-19 12:16:00,
2013-02-19 07:21:00,27.4,23.8,30.09,SW,226,0.0,0.0,86,0.00,,CLR,0.00,VWS V14.01,2013-02-19 12:21:00,
2013-02-19 07:26:00,27.9,24.5,30.09,SSW,198,0.0,0.0,87,0.00,,CLR,0.00,VWS V14.01,2013-02-19 12:26:00,
2013-02-19 07:31:00,28.4,25.0,30.09,SSW,198,0.0,0.0,87,0.00,,CLR,0.00,VWS V14.01,2013-02-19 12:31:00,
2013-02-19 07:36:00,28.8,25.4,30.09,South,186,0.0,0.0,87,0.00,,CLR,0.00,VWS V14.01,2013-02-19 12:36:00,
2013-02-19 07:41:00,29.4,25.7,30.09,SSE,149,0.0,0.0,86,0.00,,CLR,0.00,VWS V14.01,2013-02-19 12:41:00,
2013-02-19 07:46:00,29.9,26.0,30.09,SE,131,0.0,0.0,85,0.00,,CLR,0.00,VWS V14.01,2013-02-19 12:46:00,
2013-02-19 07:51:00,30.3,26.3,30.09,SE,127,0.0,0.0,85,0.00,,CLR,0.00,VWS V14.01,2013-02-19 12:51:00,
2013-02-19 07:56:00,30.9,26.6,30.09,ESE,109,0.0,1.4,84,0.00,,CLR,0.00,VWS V14.01,2013-02-19 12:56:00,
2013-02-19 08:01:00,31.4,27.1,30.09,ESE,109,0.0,0.0,84,0.00,,CLR,0.00,VWS V14.01,2013-02-19 13:01:00,
2013-02-19 08:06:00,31.8,27.5,30.08,ESE,110,0.0,0.0,84,0.00,,CLR,0.00,VWS V14.01,2013-02-19 13:06:00,
2013-02-19 08:11:00,32.2,27.9,30.08,ESE,107,0.0,1.4,84,0.00,,CLR,0.00,VWS V14.01,2013-02-19 13:11:00,
2013-02-19 08:16:00,32.7,28.1,30.08,ESE,110,1.4,4.3,83,0.00,,CLR,0.00,VWS V14.01,2013-02-19 13:16:00,
2013-02-19 08:21:00,33.0,28.4,30.08,SSE,153,0.0,5.7,83,0.00,,CLR,0.00,VWS V14.01,2013-02-19 13:21:00,
2013-02-19 08:26:00,33.5,28.9,30.09,SSE,153,0.0,0.0,83,0.00,,CLR,0.00,VWS V14.01,2013-02-19 13:26:00,
2013-02-19 08:31:00,33.8,29.5,30.08,SE,135,0.0,4.3,84,0.00,,CLR,0.00,VWS V14.01,2013-02-19 13:31:00,
2013-02-19 08:36:00,34.3,30.0,30.08,SE,134,8.6,8.6,84,0.00,,CLR,0.00,VWS V14.01,2013-02-19 13:36:00,
2013-02-19 08:41:00,34.7,30.7,30.08,SSE,149,0.0,0.0,85,0.00,,CLR,0.00,VWS V14.01,2013-02-19 13:41:00,
2013-02-19 08:46:00,35.0,31.0,30.08,SSE,159,0.0,5.7,85,0.00,,CLR,0.00,VWS V14.01,2013-02-19 13:46:00,
2013-02-19 08:51:00,35.5,31.5,30.08,SE,125,0.0,2.9,85,0.00,,CLR,0.00,VWS V14.01,2013-02-19 13:51:00,
2013-02-19 08:56:00,35.9,31.8,30.07,SSE,156,0.0,7.1,85,0.00,,CLR,0.00,VWS V14.01,2013-02-19 13:56:00,
2013-02-19 09:01:00,36.2,31.8,30.07,SE,140,2.9,11.4,84,0.00,,CLR,0.00,VWS V14.01,2013-02-19 14:01:00,
2013-02-19 09:06:00,36.4,32.3,30.07,SSE,147,0.0,4.3,85,0.00,,CLR,0.00,VWS V14.01,2013-02-19 14:06:00,
2013-02-19 09:11:00,36.9,32.5,30.07,SSE,162,1.4,8.6,84,0.00,,CLR,0.00,VWS V14.01,2013-02-19 14:11:00,
2013-02-19 09:16:00,37.1,32.7,30.07,SSW,197,5.7,10.0,84,0.00,,CLR,0.00,VWS V14.01,2013-02-19 14:16:00,
2013-02-19 09:21:00,37.6,33.2,30.06,SE,143,4.3,8.6,84,0.00,,CLR,0.00,VWS V14.01,2013-02-19 14:21:00,
2013-02-19 09:26:00,37.8,33.4,30.06,South,173,8.6,12.9,84,0.00,,CLR,0.00,VWS V14.01,2013-02-19 14:26:00,
2013-02-19 09:31:00,38.1,33.7,30.06,SSE,158,10.0,14.3,84,0.00,,CLR,0.00,VWS V14.01,2013-02-19 14:31:00,
2013-02-19 09:36:00,38.3,33.6,30.06,SSW,193,10.0,11.4,83,0.00,,CLR,0.00,VWS V14.01,2013-02-19 14:36:00,
2013-02-19 09:41:00,38.4,33.7,30.05,South,176,10.0,10.0,83,0.00,,CLR,0.00,VWS V14.01,2013-02-19 14:41:00,
2013-02-19 09:46:00,38.6,33.9,30.05,SE,138,14.3,14.3,83,0.00,,CLR,0.00,VWS V14.01,2013-02-19 14:46:00,
2013-02-19 09:51:00,38.6,33.6,30.06,SSE,161,8.6,8.6,82,0.00,,CLR,0.00,VWS V14.01,2013-02-19 14:51:00,
2013-02-19 09:56:00,38.7,34.0,30.05,ESE,121,1.4,10.0,83,0.00,,CLR,0.00,VWS V14.01,2013-02-19 14:56:00,
2013-02-19 10:01:00,38.9,33.9,30.05,SSE,157,8.6,10.0,82,0.00,,CLR,0.00,VWS V14.01,2013-02-19 15:01:00,
2013-02-19 10:06:00,39.0,33.7,30.05,SSE,158,1.4,7.1,81,0.00,,CLR,0.00,VWS V14.01,2013-02-19 15:06:00,
2013-02-19 10:11:00,39.1,34.1,30.05,SSE,154,5.7,15.7,82,0.00,,CLR,0.00,VWS V14.01,2013-02-19 15:11:00,
2013-02-19 10:16:00,39.4,34.1,30.05,SE,138,0.0,7.1,81,0.00,,CLR,0.00,VWS V14.01,2013-02-19 15:16:00,
2013-02-19 10:21:00,39.7,34.0,30.05,South,173,4.3,7.1,80,0.00,,CLR,0.00,VWS V14.01,2013-02-19 15:21:00,
2013-02-19 10:26:00,40.0,34.7,30.05,SSE,163,4.3,8.6,81,0.00,,CLR,0.00,VWS V14.01,2013-02-19 15:26:00,
2013-02-19 10:31:00,40.4,34.7,30.04,SSE,155,5.7,12.9,80,0.00,,CLR,0.00,VWS V14.01,2013-02-19 15:31:00,
2013-02-19 10:36:00,40.7,34.7,30.03,SE,129,11.4,11.4,79,0.00,,CLR,0.00,VWS V14.01,2013-02-19 15:36:00,
2013-02-19 10:53:00,41.4,34.4,30.02,SE,130,2.9,2.9,76,0.00,,CLR,0.00,VWS V14.01,2013-02-19 15:53:00,
2013-02-19 10:58:00,41.2,34.5,30.02,ESE,119,7.0,9.9,77,0.00,,CLR,0.00,VWS V14.01,2013-02-19 15:58:00,
2013-02-19 11:03:00,41.1,34.5,30.02,SE,142,7.0,12.7,77,0.00,,CLR,0.00,VWS V14.01,2013-02-19 16:03:00,
2013-02-19 11:08:00,41.0,34.3,30.02,SE,139,14.1,14.1,77,0.00,,CLR,0.00,VWS V14.01,2013-02-19 16:08:00,
2013-02-19 11:13:00,40.9,34.3,30.02,SSE,151,7.0,12.7,77,0.00,,CLR,0.00,VWS V14.01,2013-02-19 16:13:00,
2013-02-19 11:18:00,41.1,34.1,30.02,SE,129,1.4,8.5,76,0.00,,CLR,0.00,VWS V14.01,2013-02-19 16:18:00,
2013-02-19 11:23:00,41.2,34.2,30.01,ESE,123,2.8,9.9,76,0.00,,CLR,0.00,VWS V14.01,2013-02-19 16:23:00,
2013-02-19 11:28:00,41.4,34.1,30.01,SE,125,0.0,7.0,75,0.00,,CLR,0.00,VWS V14.01,2013-02-19 16:28:00,
2013-02-19 11:33:00,41.9,34.2,30.00,SE,141,7.0,12.7,74,0.00,,CLR,0.00,VWS V14.01,2013-02-19 16:33:00,
2013-02-19 11:38:00,42.2,34.2,29.99,SE,136,8.5,12.7,73,0.00,,CLR,0.00,VWS V14.01,2013-02-19 16:38:00,
2013-02-19 11:43:00,42.3,34.3,29.99,East,92,5.6,7.0,73,0.00,,CLR,0.00,VWS V14.01,2013-02-19 16:43:00,
2013-02-19 11:48:00,42.2,34.5,29.99,ESE,114,4.2,8.5,74,0.00,,CLR,0.00,VWS V14.01,2013-02-19 16:48:00,
2013-02-19 11:53:00,42.2,34.5,29.99,ESE,117,4.2,11.3,74,0.00,,CLR,0.00,VWS V14.01,2013-02-19 16:53:00,
2013-02-19 11:58:00,42.4,34.7,29.98,SE,146,5.6,12.7,74,0.00,,CLR,0.00,VWS V14.01,2013-02-19 16:58:00,
2013-02-19 12:03:00,42.2,34.5,29.99,SE,145,18.3,18.3,74,0.00,,OVC250,0.00,VWS V14.01,2013-02-19 17:03:00,
2013-02-19 12:08:00,42.1,34.4,29.98,SE,145,14.1,15.5,74,0.00,,OVC250,0.00,VWS V14.01,2013-02-19 17:08:00,
2013-02-19 12:13:00,41.9,34.9,29.98,SE,139,0.0,8.5,76,0.00,,OVC250,0.00,VWS V14.01,2013-02-19 17:13:00,
2013-02-19 12:18:00,41.8,34.8,29.98,SE,133,15.5,19.7,76,0.00,,OVC250,0.00,VWS V14.01,2013-02-19 17:18:00,
2013-02-19 12:23:00,41.6,34.6,29.98,SSE,164,2.8,7.0,76,0.00,,OVC250,0.00,VWS V14.01,2013-02-19 17:23:00,
2013-02-19 12:28:00,41.5,34.8,29.97,SE,139,12.7,14.1,77,0.00,,OVC250,0.00,VWS V14.01,2013-02-19 17:28:00,
2013-02-19 12:33:00,41.4,35.1,29.97,SSE,160,2.8,9.9,78,0.00,,OVC250,0.00,VWS V14.01,2013-02-19 17:33:00,
2013-02-19 12:38:00,41.5,34.8,29.97,SE,125,5.6,9.9,77,0.00,,OVC250,0.00,VWS V14.01,2013-02-19 17:38:00,
2013-02-19 12:43:00,41.8,35.5,29.97,SE,144,11.3,14.1,78,0.00,,OVC250,0.00,VWS V14.01,2013-02-19 17:43:00,
2013-02-19 12:48:00,41.8,35.5,29.96,SSE,149,9.9,16.9,78,0.00,,OVC250,0.00,VWS V14.01,2013-02-19 17:48:00,
2013-02-19 12:53:00,42.0,35.7,29.96,ESE,121,8.5,16.9,78,0.00,,OVC250,0.00,VWS V14.01,2013-02-19 17:53:00,
2013-02-19 12:58:00,42.2,35.8,29.95,SSE,160,4.2,14.1,78,0.00,,OVC250,0.00,VWS V14.01,2013-02-19 17:58:00,
2013-02-19 13:03:00,42.4,36.0,29.95,SE,132,1.4,12.7,78,0.00,,OVC250,0.00,VWS V14.01,2013-02-19 18:03:00,
2013-02-19 13:08:00,42.6,36.2,29.95,SSE,148,5.6,12.7,78,0.00,,OVC250,0.00,VWS V14.01,2013-02-19 18:08:00,
2013-02-19 13:13:00,42.7,36.3,29.94,SSE,147,16.9,16.9,78,0.00,,OVC250,0.00,VWS V14.01,2013-02-19 18:13:00,
2013-02-19 13:18:00,42.8,36.4,29.94,SSE,147,8.5,18.3,78,0.00,,OVC250,0.00,VWS V14.01,2013-02-19 18:18:00,
2013-02-19 13:23:00,42.9,36.5,29.93,SSE,152,2.8,11.3,78,0.00,,OVC250,0.00,VWS V14.01,2013-02-19 18:23:00,
2013-02-19 13:28:00,42.8,36.4,29.94,SSE,150,7.0,18.3,78,0.00,,OVC250,0.00,VWS V14.01,2013-02-19 18:28:00,
2013-02-19 13:33:00,42.9,36.8,29.93,SSE,149,15.5,15.5,79,0.00,,OVC250,0.00,VWS V14.01,2013-02-19 18:33:00,
2013-02-19 13:38:00,42.9,36.8,29.92,SE,133,8.5,11.3,79,0.00,,OVC250,0.00,VWS V14.01,2013-02-19 18:38:00,
2013-02-19 13:43:00,42.8,36.8,29.92,SSE,154,4.2,9.9,79,0.00,,OVC250,0.00,VWS V14.01,2013-02-19 18:43:00,
2013-02-19 13:48:00,42.8,36.8,29.92,SE,141,4.2,8.5,79,0.00,,OVC250,0.00,VWS V14.01,2013-02-19 18:48:00,
2013-02-19 13:53:00,43.0,36.9,29.92,ESE,123,7.0,9.9,79,0.00,,OVC250,0.00,VWS V14.01,2013-02-19 18:53:00,
2013-02-19 13:58:00,43.0,36.9,29.92,SE,126,9.9,16.9,79,0.00,,OVC250,0.00,VWS V14.01,2013-02-19 18:58:00,
2013-02-19 14:03:00,42.9,36.8,29.91,ESE,103,2.8,12.7,79,0.00,,BKN050,0.00,VWS V14.01,2013-02-19 19:03:00,
2013-02-19 14:08:00,42.7,37.0,29.92,SE,133,4.2,9.9,80,0.00,,BKN050,0.00,VWS V14.01,2013-02-19 19:08:00,
2013-02-19 14:13:00,42.4,37.0,29.92,ESE,105,1.4,7.0,81,0.00,,BKN050,0.00,VWS V14.01,2013-02-19 19:13:00,
2013-02-19 14:18:00,42.3,36.9,29.91,SE,138,8.5,8.5,81,0.00,,BKN050,0.00,VWS V14.01,2013-02-19 19:18:00,
2013-02-19 14:23:00,42.3,36.9,29.90,SSE,148,7.0,11.3,81,0.00,,BKN050,0.00,VWS V14.01,2013-02-19 19:23:00,
2013-02-19 14:28:00,42.1,37.6,29.90,SE,139,8.5,15.5,84,0.00,,BKN050,0.00,VWS V14.01,2013-02-19 19:28:00,
2013-02-19 14:33:00,41.9,37.7,29.90,South,178,9.9,9.9,85,0.00,,BKN050,0.00,VWS V14.01,2013-02-19 19:33:00,
2013-02-19 14:38:00,41.6,37.7,29.89,SSW,197,7.0,7.0,86,0.00,,BKN050,0.00,VWS V14.01,2013-02-19 19:38:00,
2013-02-19 14:43:00,41.3,37.7,29.89,SSW,204,5.6,15.5,87,0.00,,BKN050,0.00,VWS V14.01,2013-02-19 19:43:00,
2013-02-19 14:48:00,41.0,38.3,29.89,SSW,202,4.2,9.9,90,0.01,,BKN050,0.01,VWS V14.01,2013-02-19 19:48:00,
2013-02-19 14:53:00,40.6,38.2,29.88,SW,218,4.2,8.5,91,0.01,,BKN050,0.01,VWS V14.01,2013-02-19 19:53:00,
2013-02-19 14:58:00,40.3,38.7,29.88,SSE,166,9.9,9.9,94,0.02,,BKN050,0.02,VWS V14.01,2013-02-19 19:58:00,
2013-02-19 15:03:00,39.9,38.6,29.87,SSW,205,1.4,11.3,95,0.02,,BKN050,0.02,VWS V14.01,2013-02-19 20:03:00,
2013-02-19 15:08:00,39.7,38.7,29.87,South,188,1.4,9.9,96,0.03,,-RA,0.03,VWS V14.01,2013-02-19 20:08:00,
2013-02-19 15:13:00,39.5,38.7,29.87,SSW,207,4.2,4.2,97,0.03,,-RA,0.03,VWS V14.01,2013-02-19 20:13:00,
2013-02-19 15:18:00,39.5,39.0,29.86,South,177,0.0,0.0,98,0.03,,-RA,0.03,VWS V14.01,2013-02-19 20:18:00,
2013-02-19 15:23:00,39.3,39.0,29.85,SSW,209,1.4,2.8,99,0.03,,-RA,0.03,VWS V14.01,2013-02-19 20:23:00,
2013-02-19 15:28:00,39.3,39.0,29.85,South,179,0.0,5.6,99,0.03,,-RA,0.03,VWS V14.01,2013-02-19 20:28:00,
2013-02-19 15:33:00,39.4,39.4,29.85,SSE,156,0.0,2.8,100,0.04,,-RA,0.04,VWS V14.01,2013-02-19 20:33:00,
2013-02-19 15:38:00,39.3,39.3,29.84,SSW,209,0.0,2.8,100,0.04,,-RA,0.04,VWS V14.01,2013-02-19 20:38:00,
2013-02-19 15:43:00,39.3,39.3,29.84,SW,216,4.2,5.6,100,0.05,,-RA,0.05,VWS V14.01,2013-02-19 20:43:00,
2013-02-19 15:48:00,39.5,39.5,29.84,South,178,2.8,9.9,100,0.05,,-RA,0.05,VWS V14.01,2013-02-19 20:48:00,
2013-02-19 15:53:00,39.5,39.5,29.84,South,180,2.8,5.6,100,0.06,,-RA,0.06,VWS V14.01,2013-02-19 20:53:00,
2013-02-19 15:58:00,39.3,39.3,29.84,SSE,153,0.0,4.2,100,0.06,,-RA,0.06,VWS V14.01,2013-02-19 20:58:00,
2013-02-19 16:03:00,39.3,39.3,29.83,SSE,157,0.0,0.0,100,0.04,,-RA,0.06,VWS V14.01,2013-02-19 21:03:00,
2013-02-19 16:08:00,39.2,39.2,29.83,SSW,203,1.4,1.4,100,0.05,,-RA,0.07,VWS V14.01,2013-02-19 21:08:00,
2013-02-19 16:13:00,39.1,39.1,29.82,SW,228,0.0,1.4,100,0.05,,-RA,0.07,VWS V14.01,2013-02-19 21:13:00,
2013-02-19 16:18:00,39.2,39.2,29.82,SSE,154,0.0,4.2,100,0.06,,-RA,0.08,VWS V14.01,2013-02-19 21:18:00,
2013-02-19 16:23:00,39.2,39.2,29.82,South,183,2.8,8.5,100,0.07,,-RA,0.09,VWS V14.01,2013-02-19 21:23:00,
2013-02-19 16:28:00,39.2,39.2,29.81,South,182,0.0,1.4,100,0.08,,-RA,0.10,VWS V14.01,2013-02-19 21:28:00,
2013-02-19 16:33:00,39.2,39.2,29.80,SSE,157,0.0,0.0,100,0.09,,-RA,0.11,VWS V14.01,2013-02-19 21:33:00,
2013-02-19 16:38:00,39.2,39.2,29.80,SSE,164,0.0,7.0,100,0.09,,-RA,0.11,VWS V14.01,2013-02-19 21:38:00,
2013-02-19 16:43:00,39.0,39.0,29.79,SSE,163,0.0,1.4,100,0.09,,-RA,0.11,VWS V14.01,2013-02-19 21:43:00,
2013-02-19 16:48:00,39.2,39.2,29.79,SW,228,0.0,5.6,100,0.10,,-RA,0.12,VWS V14.01,2013-02-19 21:48:00,
2013-02-19 16:53:00,39.2,39.2,29.78,SSW,199,4.2,4.2,100,0.10,,-RA,0.12,VWS V14.01,2013-02-19 21:53:00,
2013-02-19 16:58:00,39.4,39.4,29.78,SSW,202,0.0,4.2,100,0.11,,-RA,0.13,VWS V14.01,2013-02-19 21:58:00,
2013-02-19 17:03:00,39.5,39.5,29.78,SSW,195,2.8,2.8,100,0.07,,-RA,0.13,VWS V14.01,2013-02-19 22:03:00,
2013-02-19 17:08:00,39.6,39.6,29.77,SE,145,0.0,4.2,100,0.08,,-RA,0.14,VWS V14.01,2013-02-19 22:08:00,
2013-02-19 17:13:00,39.6,39.6,29.77,SE,146,5.6,5.6,100,0.09,,-RA,0.15,VWS V14.01,2013-02-19 22:13:00,
2013-02-19 17:18:00,39.7,39.7,29.77,SSE,152,7.0,7.0,100,0.09,,-RA,0.15,VWS V14.01,2013-02-19 22:18:00,
2013-02-19 17:23:00,39.8,39.8,29.76,SSW,193,0.0,8.5,100,0.10,,-RA,0.16,VWS V14.01,2013-02-19 22:23:00,
2013-02-19 17:28:00,39.9,39.9,29.76,ESE,120,5.6,8.5,100,0.11,,-RA,0.17,VWS V14.01,2013-02-19 22:28:00,
2013-02-19 17:33:00,40.5,40.5,29.76,SW,218,0.0,11.3,100,0.11,,-RA,0.17,VWS V14.01,2013-02-19 22:33:00,
2013-02-19 17:38:00,40.7,40.7,29.75,South,187,11.3,11.3,100,0.12,,-RA,0.18,VWS V14.01,2013-02-19 22:38:00,
2013-02-19 17:43:00,40.8,40.8,29.75,SSE,149,0.0,4.2,100,0.12,,-RA,0.18,VWS V14.01,2013-02-19 22:43:00,
2013-02-19 17:48:00,40.8,40.8,29.74,SW,220,2.8,7.0,100,0.12,,-RA,0.18,VWS V14.01,2013-02-19 22:48:00,
2013-02-19 17:53:00,41.1,41.1,29.74,SSE,162,11.3,11.3,100,0.13,,-RA,0.19,VWS V14.01,2013-02-19 22:53:00,
2013-02-19 17:58:00,41.2,41.2,29.74,South,189,4.2,5.6,100,0.13,,-RA,0.19,VWS V14.01,2013-02-19 22:58:00,
2013-02-19 18:09:00,40.3,40.3,29.73,SSW,200,2.8,19.7,100,0.19,,-RA,0.25,VWS V14.01,2013-02-19 23:09:00,
2013-02-19 18:14:00,41.5,41.5,29.73,SSW,206,0.0,8.5,100,0.07,,-RA,0.20,VWS V14.01,2013-02-19 23:14:00,
2013-02-19 18:19:00,41.5,41.5,29.72,SW,229,7.0,12.7,100,0.07,,-RA,0.20,VWS V14.01,2013-02-19 23:19:00,
2013-02-19 18:24:00,41.7,41.7,29.72,WSW,238,9.9,9.9,100,0.07,,-RA,0.20,VWS V14.01,2013-02-19 23:24:00,
2013-02-19 18:29:00,41.7,41.7,29.72,SSW,212,11.3,16.9,100,0.07,,-RA,0.20,VWS V14.01,2013-02-19 23:29:00,
2013-02-19 18:34:00,41.9,41.9,29.72,SSW,206,4.2,8.5,100,0.08,,-RA,0.21,VWS V14.01,2013-02-19 23:34:00,
2013-02-19 18:39:00,42.1,42.1,29.72,SW,227,7.0,12.7,100,0.08,,-RA,0.21,VWS V14.01,2013-02-19 23:39:00,
2013-02-19 18:44:00,42.2,42.2,29.71,ENE,64,5.6,14.1,100,0.08,,-RA,0.21,VWS V14.01,2013-02-19 23:44:00,
2013-02-19 18:49:00,42.5,42.5,29.71,SW,216,7.0,15.5,100,0.08,,-RA,0.21,VWS V14.01,2013-02-19 23:49:00,
2013-02-19 18:54:00,42.6,42.6,29.71,SSW,211,5.6,18.3,100,0.08,,-RA,0.21,VWS V14.01,2013-02-19 23:54:00,
2013-02-19 18:59:00,42.6,42.6,29.70,South,175,8.5,11.3,100,0.08,,-RA,0.21,VWS V14.01,2013-02-19 23:59:00,
2013-02-19 19:04:00,42.6,42.6,29.70,SSW,192,7.0,9.9,100,0.00,,-RA,0.21,VWS V14.01,2013-02-20 00:04:00,
2013-02-19 19:09:00,42.5,42.5,29.69,SW,234,8.5,11.3,100,0.00,,-RA,0.21,VWS V14.01,2013-02-20 00:09:00,
2013-02-19 19:14:00,42.4,42.4,29.69,SW,231,7.0,8.5,100,0.00,,-RA,0.22,VWS V14.01,2013-02-20 00:14:00,
2013-02-19 19:19:00,42.2,42.2,29.69,South,189,2.8,8.5,100,0.00,,-RA,0.22,VWS V14.01,2013-02-20 00:19:00,
2013-02-19 19:24:00,42.1,42.1,29.69,SW,214,9.9,12.7,100,0.00,,-RA,0.22,VWS V14.01,2013-02-20 00:24:00,
2013-02-19 19:29:00,42.1,42.1,29.69,WSW,249,7.0,11.3,100,0.00,,-RA,0.22,VWS V14.01,2013-02-20 00:29:00,
2013-02-19 19:34:00,42.0,42.0,29.69,WSW,241,5.6,14.1,100,0.00,,-RA,0.22,VWS V14.01,2013-02-20 00:34:00,
2013-02-19 19:39:00,42.0,42.0,29.69,SW,229,9.9,9.9,100,0.00,,-RA,0.23,VWS V14.01,2013-02-20 00:39:00,
2013-02-19 19:44:00,42.1,42.1,29.69,SSW,211,8.5,8.5,100,0.00,,-RA,0.23,VWS V14.01,2013-02-20 00:44:00,
2013-02-19 19:49:00,42.1,42.1,29.68,SSW,197,7.0,14.1,100,0.00,,-RA,0.24,VWS V14.01,2013-02-20 00:49:00,
2013-02-19 19:54:00,42.0,42.0,29.67,WSW,255,14.1,14.1,100,0.00,,-RA,0.24,VWS V14.01,2013-02-20 00:54:00,
2013-02-19 19:59:00,41.8,41.8,29.67,SW,226,2.8,8.5,100,0.00,,-RA,0.25,VWS V14.01,2013-02-20 00:59:00,
2013-02-19 20:04:00,41.8,41.8,29.67,WSW,245,4.2,8.5,100,0.04,,-RA,0.25,VWS V14.01,2013-02-20 01:04:00,
2013-02-19 20:09:00,41.7,41.7,29.66,West,261,2.8,7.0,100,0.05,,-RA,0.26,VWS V14.01,2013-02-20 01:09:00,
2013-02-19 20:14:00,41.7,41.7,29.66,SW,224,1.4,7.0,100,0.05,,-RA,0.26,VWS V14.01,2013-02-20 01:14:00,
2013-02-19 20:19:00,41.5,41.5,29.66,SSW,199,4.2,7.0,100,0.05,,-RA,0.26,VWS V14.01,2013-02-20 01:19:00,
2013-02-19 20:24:00,41.5,41.5,29.66,SW,228,4.2,5.6,100,0.05,,-RA,0.26,VWS V14.01,2013-02-20 01:24:00,
2013-02-19 20:29:00,41.4,41.4,29.66,SSW,209,2.8,7.0,100,0.05,,-RA,0.26,VWS V14.01,2013-02-20 01:29:00,
2013-02-19 20:34:00,41.4,41.4,29.66,SW,227,5.6,11.3,100,0.05,,-RA,0.26,VWS V14.01,2013-02-20 01:34:00,
2013-02-19 20:39:00,41.2,41.2,29.66,SW,231,5.6,12.7,100,0.05,,-RA,0.26,VWS V14.01,2013-02-20 01:39:00,
2013-02-19 20:44:00,41.2,41.2,29.66,WSW,243,4.2,11.3,100,0.06,,-RA,0.27,VWS V14.01,2013-02-20 01:44:00,
2013-02-19 20:49:00,41.1,41.1,29.66,SSW,212,1.4,5.6,100,0.06,,-RA,0.27,VWS V14.01,2013-02-20 01:49:00,
2013-02-19 20:54:00,41.0,41.0,29.66,SSW,199,1.4,11.3,100,0.06,,-RA,0.27,VWS V14.01,2013-02-20 01:54:00,
2013-02-19 20:59:00,40.8,40.8,29.66,SSW,210,4.2,5.6,100,0.06,,-RA,0.27,VWS V14.01,2013-02-20 01:59:00,
2013-02-19 21:04:00,40.8,40.8,29.66,SW,228,0.0,7.0,100,0.02,,,0.27,VWS V14.01,2013-02-20 02:04:00,
2013-02-19 21:09:00,40.7,40.7,29.66,SW,215,2.8,9.9,100,0.02,,,0.27,VWS V14.01,2013-02-20 02:09:00,
2013-02-19 21:14:00,40.7,40.7,29.65,WSW,248,0.0,9.9,100,0.02,,,0.27,VWS V14.01,2013-02-20 02:14:00,
2013-02-19 21:19:00,40.4,40.4,29.65,WSW,241,0.0,5.6,100,0.02,,,0.27,VWS V14.01,2013-02-20 02:19:00,
2013-02-19 21:24:00,40.2,40.2,29.65,NW,322,0.0,9.9,100,0.02,,,0.27,VWS V14.01,2013-02-20 02:24:00,
2013-02-19 21:29:00,40.1,40.1,29.64,WSW,250,2.8,5.6,100,0.02,,,0.27,VWS V14.01,2013-02-20 02:29:00,
2013-02-19 21:34:00,40.1,40.1,29.64,SW,232,1.4,1.4,100,0.02,,,0.27,VWS V14.01,2013-02-20 02:34:00,
2013-02-19 21:39:00,40.0,40.0,29.64,West,265,1.4,5.6,100,0.02,,,0.27,VWS V14.01,2013-02-20 02:39:00,
2013-02-19 21:44:00,39.8,39.8,29.65,SW,231,8.5,8.5,100,0.02,,,0.27,VWS V14.01,2013-02-20 02:44:00,
2013-02-19 21:49:00,39.8,39.8,29.64,WSW,255,1.4,8.5,100,0.02,,,0.27,VWS V14.01,2013-02-20 02:49:00,
2013-02-19 21:54:00,39.5,39.5,29.64,West,259,8.5,8.5,100,0.02,,,0.27,VWS V14.01,2013-02-20 02:54:00,
2013-02-19 21:59:00,39.7,39.7,29.64,WSW,247,2.8,2.8,100,0.02,,,0.27,VWS V14.01,2013-02-20 02:59:00,
2013-02-19 22:04:00,39.8,39.8,29.65,SSW,209,2.8,7.0,100,0.00,,-RA,0.27,VWS V14.01,2013-02-20 03:04:00,
2013-02-19 22:09:00,39.8,39.8,29.64,NW,315,0.0,7.0,100,0.02,,-RA,0.29,VWS V14.01,2013-02-20 03:09:00,
2013-02-19 22:14:00,39.7,39.7,29.64,WSW,244,2.8,5.6,100,0.02,,-RA,0.29,VWS V14.01,2013-02-20 03:14:00,
2013-02-19 22:19:00,39.5,39.5,29.64,NNW,347,0.0,5.6,100,0.02,,-RA,0.29,VWS V14.01,2013-02-20 03:19:00,
2013-02-19 22:24:00,39.1,39.1,29.64,SW,226,4.2,7.0,100,0.02,,-RA,0.29,VWS V14.01,2013-02-20 03:24:00,
2013-02-19 22:29:00,39.1,39.1,29.63,NNW,328,1.4,2.8,100,0.02,,-RA,0.29,VWS V14.01,2013-02-20 03:29:00,
2013-02-19 22:34:00,39.0,39.0,29.63,NNW,338,4.2,8.5,100,0.02,,-RA,0.29,VWS V14.01,2013-02-20 03:34:00,
2013-02-19 22:39:00,39.0,39.0,29.64,WSW,258,0.0,4.2,100,0.02,,-RA,0.29,VWS V14.01,2013-02-20 03:39:00,
2013-02-19 22:44:00,38.7,38.7,29.63,West,263,0.0,5.6,100,0.02,,-RA,0.29,VWS V14.01,2013-02-20 03:44:00,
2013-02-19 22:49:00,38.7,38.7,29.63,SSW,207,0.0,2.8,100,0.02,,-RA,0.29,VWS V14.01,2013-02-20 03:49:00,
2013-02-19 22:54:00,38.6,38.6,29.63,West,281,2.8,2.8,100,0.02,,-RA,0.29,VWS V14.01,2013-02-20 03:54:00,
2013-02-19 22:59:00,38.6,38.6,29.62,West,281,0.0,1.4,100,0.02,,-RA,0.29,VWS V14.01,2013-02-20 03:59:00,
2013-02-19 23:04:00,38.3,38.3,29.62,WNW,295,2.8,4.2,100,0.02,,OVC065,0.29,VWS V14.01,2013-02-20 04:04:00,
2013-02-19 23:09:00,38.1,38.1,29.63,West,267,1.4,2.8,100,0.02,,OVC065,0.29,VWS V14.01,2013-02-20 04:09:00,
2013-02-19 23:14:00,38.0,38.0,29.62,SW,226,2.8,4.2,100,0.02,,OVC065,0.29,VWS V14.01,2013-02-20 04:14:00,
2013-02-19 23:19:00,38.0,38.0,29.64,WSW,241,1.4,4.2,100,0.02,,OVC065,0.29,VWS V14.01,2013-02-20 04:19:00,
2013-02-19 23:24:00,38.0,38.0,29.64,WSW,240,4.2,5.6,100,0.02,,OVC065,0.29,VWS V14.01,2013-02-20 04:24:00,
2013-02-19 23:29:00,37.9,37.9,29.63,West,263,7.0,8.5,100,0.02,,OVC065,0.29,VWS V14.01,2013-02-20 04:29:00,
2013-02-19 23:34:00,37.7,37.7,29.63,WSW,246,5.6,12.7,100,0.02,,OVC065,0.29,VWS V14.01,2013-02-20 04:34:00,
2013-02-19 23:39:00,37.7,37.7,29.63,SW,225,0.0,4.2,100,0.02,,OVC065,0.29,VWS V14.01,2013-02-20 04:39:00,
2013-02-19 23:44:00,37.6,37.6,29.64,West,271,1.4,2.8,100,0.02,,OVC065,0.29,VWS V14.01,2013-02-20 04:44:00,
2013-02-19 23:49:00,37.6,37.6,29.64,WSW,246,0.0,5.6,100,0.02,,OVC065,0.29,VWS V14.01,2013-02-20 04:49:00,
2013-02-19 23:54:00,37.4,37.4,29.63,WSW,238,0.0,8.5,100,0.02,,OVC065,0.29,VWS V14.01,2013-02-20 04:54:00,
2013-02-19 23:59:00,37.3,37.3,29.63,SW,224,0.0,5.6,100,0.02,,OVC065,0.29,VWS V14.01,2013-02-20 04:59:00,